Tracking 19192 objects as of 18-Jun-2018
HD Live streaming from Space Station
objects crossing your sky now

FENGYUN 1C DEB

Track FENGYUN 1C DEB now!
10-day predictions


NORAD ID: 31080
Int'l Code: 1999-025BGA
Perigee: 815.9 km
Apogee: 939.8 km
Inclination: 99.1 °
Period: 102.4 minutes
Semi major axis: 7248 km
RCS: 0.0084 m2 (small)
Launch date: May 10, 1999
Source: People's Republic of China (PRC)
Launch site: Taiyaun Space Center, China (TSC)

Note: This is SATELLITE DEBRIS
aabbcc
Your satellite tracking list
Your tracking list is empty




NASA's NSSDC Master Catalog

Two Line Element Set (TLE):
1 31080U 99025BGA 18167.46192067  .00000368  00000-0  24128-3 0  9992
2 31080  99.0783 245.3160 0085420 219.2361 140.2596 14.06698285576334
Source of the keplerian elements: AFSPC